Regional Weather Roundup
Issued by NWS

Home | Current Version | Previous Version | Text Only | Print | Product List | Glossary On
Versions: 1 2 3 4 5 6 7 8 9 10 11 12 13 14 15 16 17 18 19 20 21 22 23 24 25 26 27 28 29 30 31 32 33 34 35 36 37 38 39 40 41 42 43 44 45 46 47 48 49 50
000
ASUS43 KMPX 010210
RWRMN
WEATHER ROUNDUP FOR MINNESOTA
NATIONAL WEATHER SERVICE TWIN CITIES/CHANHASSEN MN
800 PM CST SUN FEB 28 2021


NOTE: "FAIR" INDICATES FEW OR NO CLOUDS BELOW 12,000 FEET WITH NO
SIGNIFICANT WEATHER AND/OR OBSTRUCTIONS TO VISIBILITY. N/A MEANS
CURRENT SKY AND/OR WEATHER CONDITIONS ARE NOT AVAILABLE.

MNZ060>063-068>070-010300-
   Twin Cities Metro

CITY           SKY/WX    TMP DP  RH WIND       PRES   REMARKS
TWIN CITIES    CLEAR     21  10  62 W13       30.03R WCI   9
ST PAUL        CLEAR     22  11  62 NW15      30.04R WCI   9
CRYSTAL        CLEAR     20  10  65 W9        30.02R WCI   9
BLAINE         CLEAR     21  12  68 W12       30.01R WCI   9
LAKEVILLE      CLEAR     19  12  73 W10G17    30.03R WCI   8
EDEN PRAIRIE   CLEAR     20  11  68 W10       30.03R WCI   9
SOUTH ST PAUL  CLEAR     22  11  61 W13       30.03R WCI  10
LAKE ELMO      FAIR      19  12  73 MISG      30.02
$$
MNZ001>005-007-008-013>017-022>024-027-028-010300-
   Northwest Minnesota

CITY           SKY/WX    TMP DP  RH WIND       PRES   REMARKS
BEMIDJI        MOCLDY    12   4  70 NW13      30.02R WCI  -3
HALLOCK        MOCLDY    12   7  79 NW9       30.12R WCI   0
ROSEAU         PTCLDY    16   1  53 NW9       30.07R WCI   4
WARROAD        PTCLDY    10   1  67 NW9       30.05R WCI  -2
THIEF RVR FALL CLOUDY    12   3  67 NW18      30.09R WCI  -6
CROOKSTON      PTCLDY    12   7  79 N9        30.12R WCI   0
FOSSTON        CLOUDY    10   3  72 NW12G18   30.06R WCI  -4
DETROIT LAKES  CLOUDY    14   9  79 NW12      30.03S WCI   0
MOORHEAD       PTCLDY    19   5  53 N14       30.07S WCI   6
PARK RAPIDS    PTCLDY    15   6  67 N12       30.00R WCI   2
MAHNOMEN       CLOUDY    14   6  68 N13       30.06R WCI   0
$$
MNZ006-009>011-018-025>026-010300-
   North Central Minnesota

CITY           SKY/WX    TMP DP  RH WIND       PRES   REMARKS
BAUDETTE       CLOUDY    10   1  67 NW13      30.01R WCI  -5
FLAG ISLAND    CLOUDY     9   0  66 NW13      30.03R WCI  -7
INTL FALLS     CLOUDY    10   0  63 NW8       29.97R WCI  -2
WASKISH        PTCLDY    10   3  72 W7        30.02R WCI   0
BIG FORK       MOCLDY    12   1  62 NW7       30.03R WCI   2
GRAND RAPIDS   MOCLDY    14   5  67 NW16      29.99R WCI  -2
CRANE LAKE       N/A     10   0  61 NW3       29.98R
ORR            MOCLDY    10   0  61 NW10      29.93R WCI  -3
COOK           MOCLDY    12   1  62 NW8       29.94R WCI   1
WALKER         MOCLDY    13   5  70 NW9       30.00S WCI   1
$$
MNZ012-019>021-037-010300-
   Northeast Minnesota

CITY           SKY/WX    TMP DP  RH WIND       PRES   REMARKS
DULUTH         PTCLDY    17   3  54 NW14G20   29.89R WCI   3
ELY            PTCLDY    10   0  61 W10       29.89S WCI  -3
HIBBING        MOCLDY    14   3  61 NW15      29.93R WCI  -1
EVELETH        MOCLDY    15   3  60 NW13      29.94R WCI   0
DULUTH HARBOR  PTCLDY    21   7  53 NW20      29.97R WCI   6
TWO HARBORS    PTCLDY    16   1  53 W9G16     29.90R WCI   4
SILVER BAY     PTCLDY    14   0  52 NW6G18    29.88R WCI   5
GRAND MARAIS     N/A     19   3  49 NW10G22   29.84R WCI   7
G MARAIS ARPRT PTCLDY    10   0  61 NW13G22   29.75R WCI  -5
$$
MNZ029>031-032-039>041-046>048-054>057-064-010300-
   West Central Minnesota

CITY           SKY/WX    TMP DP  RH WIND       PRES   REMARKS
FERGUS FALLS   PTCLDY    18  10  73 N7        30.00F WCI   8
WHEATON        PTCLDY    21  14  73 NE6       30.06S WCI  14
MORRIS         PTCLDY    19  12  73 NE3       30.04F
ALEXANDRIA     PTCLDY    19  11  70 NW12      30.02  WCI   7
ELBOW LAKE     FAIR      18  13  79 N8        30.04F WCI   8
WADENA         MOCLDY    16   9  73 NW6       30.01S WCI   7
GLENWOOD       PTCLDY    18  12  79 NW9       30.03S WCI   6
APPLETON       PTCLDY    18  14  86 NE3       30.04F
BENSON         PTCLDY    16  12  86 CALM      30.05F
ORTONVILLE     PTCLDY    23  16  74 CALM      30.03F
MADISON        CLEAR     21  14  73 SW8       30.07F WCI  12
WILLMAR        FAIR      16  10  79 W3        30.07S
$$
MNZ033>034-036-042>043-049>051-058-059-010300-
   Central Minnesota

CITY           SKY/WX    TMP DP  RH WIND       PRES   REMARKS
ST CLOUD       CLEAR     18   8  65 W9        30.02R WCI   7
SAUK CENTRE      N/A     18  12  76 W8        30.03R WCI   8
PAYNESVILLE    PTCLDY    16  14  93 W6        30.04S WCI   7
AITKIN         MOCLDY    18   7  62 NW8       29.98S WCI   7
PINE RIVER     MOCLDY    19   9  63 NW5       30.03R WCI  13
BRAINERD       CLOUDY    19   7  59 W8        29.99S WCI   9
STAPLES        MOCLDY    18  10  73 W8        30.01S WCI   7
LONG PRAIRIE   CLOUDY    19  10  68 NW9       30.02S WCI   9
LITTLE FALLS   MOCLDY    19   9  63 W7        30.02S WCI  10
CAMP RIPLEY    MOCLDY    18   9  67 NW13      30.02R WCI   5
LITCHFIELD     CLEAR     18  12  79 W3        30.04S
BUFFALO        CLEAR     18  10  73 MISG      30.05R
HUTCHINSON     MOCLDY    17  14  89 W6        30.06R WCI   8
$$
MNZ037-044-045-052-053-010300-
   East Central Minnesota

CITY           SKY/WX    TMP DP  RH WIND       PRES   REMARKS
PRINCETON      CLEAR     19   9  63 W9        30.01R WCI   9
MORA           CLEAR     19   9  63 NW9G16    30.00R WCI   9
CAMBRIDGE      CLEAR     21   7  53 W9        30.01R WCI  11
RUSH CITY      CLEAR     19   8  62 W7        30.00R WCI   9
MOOSE LAKE     MOCLDY    21   5  49 NW9G17    29.95R WCI  11
HINCKLEY       CLEAR     23   9  54 CALM      29.97R
CLOQUET        PTCLDY    16   3  57 NW17      29.91S WCI   0
MCGREGOR       CLOUDY    19   9  63 NW12G18   29.98R WCI   7
$$
MNZ071>073-080-081-089-090-097-098-010300-
   Southwest Minnesota

CITY           SKY/WX    TMP DP  RH WIND       PRES   REMARKS
MONTEVIDEO     PTCLDY    18  10  73 CALM      30.06S
GRANITE FALLS  PTCLDY    19  15  86 SW10      30.08S WCI   7
CANBY          CLEAR     22  16  78 SW10      30.06F WCI  11
MARSHALL       CLEAR     14  10  84 SW6       30.07S WCI   5
REDWOOD FALLS  CLEAR     19  13  77 SW5       30.06S WCI  12
OLIVIA         PTCLDY    12  10  92 SW6       30.06S WCI   3
PIPESTONE        N/A     16  12  86 W7        30.06S WCI   6
WINDOM         CLEAR     18  14  86 W7        30.06S WCI   8
WORTHINGTON    CLEAR     19  15  84 W9        30.08R WCI   8
JACKSON        PTCLDY    21  18  86 W9        30.08S WCI  11
TRACY          CLEAR     20  12  71 W8        30.06S WCI  10
SLAYTON        CLEAR     18  13  80 W7        30.06S WCI   9
$$
MNZ065>067-074>077-082>085-091>093-010300-
   South Central Minnesota

CITY           SKY/WX    TMP DP  RH WIND       PRES   REMARKS
MANKATO        CLEAR     20  16  84 W8        30.07R WCI  10
NEW ULM        CLEAR     19  16  86 W7        30.07S WCI  10
ST JAMES       CLEAR     21  18  86 W8        30.08R WCI  12
FAIRMONT       CLEAR     22  16  78 NW12      30.09R WCI  10
GLENCOE        CLEAR     19  13  78 W7        30.05R WCI  10
FARIBAULT      CLEAR     19  16  86 W10       30.05S WCI   8
OWATONNA       CLEAR     19  16  86 W12       30.04S WCI   7
WASECA         CLEAR     21  16  79 W13       30.08R WCI   9
ALBERT LEA     CLEAR     19  18  93 W9        30.05R WCI   9
$$
MNZ078>079-086>088-094>096-010300-
   Southeast Minnesota

CITY           SKY/WX    TMP DP  RH WIND       PRES   REMARKS
ROCHESTER      CLEAR     19  14  81 W23       29.99R WCI   2
RED WING       CLEAR     23  16  74 W15       30.01R WCI  10
STANTON        CLEAR     20  14  76 W10       30.03R WCI   9
DODGE CENTER   CLEAR     19  14  79 W15       30.01S WCI   5
WINONA         CLEAR     28  21  74 W12G23    30.00R WCI  18
PRESTON        CLEAR     20  15  81 W13       30.00R WCI   7
$$
ABBREVIATIONS USED IN REMARKS
   TC - TEMPERATURES IN CELSIUS
  WCI - WIND CHILL INDEX
   HX - HEAT INDEX
  VSB - VISIBILITY
$$



USA.gov is the U.S. government's official web portal to all federal, state and local government web resources and services.